Weather History for Tarboro, NC

Change the Weather History Date:

Friday, November 23, 2012

  Actual Average Record
Temperature  
Mean Temperature 48 °F -  
Max Temperature 67 °F 59 °F 80 °F (1979)
Min Temperature 28 °F 34 °F 18 °F (1976)
Degree Days  
Heating Degree Days 18    
Moisture  
Dew Point 33 °F    
Average Humidity 62    
Maximum Humidity 94    
Minimum Humidity 27    
Precipitation  
Precipitation 0.00 in - - ()
Sea Level Pressure  
Sea Level Pressure 30.00 in    
Wind  
Wind Speed 2 mph (SW)    
Max Wind Speed 10 mph    
Max Gust Speed -    
Visibility 10 miles    
Events      
Averages and records for this station are not official NWS values.
T = Trace of Precipitation, MM = Missing Value Source: NWS Daily Summary

Daily Weather History Graph

Daily Weather History Graph

Search for Another Location

Airport:

Trip Planner

Search our weather history database for the weather conditions in past years. The results will help you decide how hot, cold, wet, or windy it might be!

Date:

Astronomy

Nov. 23, 2012 Rise Set
Actual Time 6:54 AM EST 4:58 PM EST
Civil Twilight 6:27 AM EST 5:25 PM EST
Nautical Twilight 5:55 AM EST 5:57 PM EST
Astronomical Twilight 5:25 AM EST 6:28 PM EST
Moon 2:05 PM EST (11/23) 2:19 AM EST (11/23)
Length of Visible Light 10h 58m
Length of Day
10h 03m
Waxing Gibbous, 79% of the Moon is Illuminated
Nov 23
Waxing Gibbous
Nov 28
Full
Dec 6
Last Quarter
Dec 13
New
Dec 20
First Quarter

Hourly Weather History & Observations

Time (EST) Temp. Windchill Dew Point Humidity Pressure Visibility Wind Dir Wind Speed Gust Speed Precip Events Conditions
12:15 AM 31.8 °F - 30.0 °F 93% 30.16 in 10.0 mi Calm Calm - N/A   Clear
12:55 AM 31.1 °F - 29.3 °F 93% 30.15 in 10.0 mi Calm Calm - N/A   Clear
1:15 AM 30.9 °F - 29.1 °F 93% 30.15 in 10.0 mi Calm Calm - N/A   Clear
1:35 AM 30.9 °F - 28.9 °F 92% 30.15 in 10.0 mi Calm Calm - N/A   Clear
1:55 AM 30.2 °F - 28.4 °F 93% 30.14 in 10.0 mi Calm Calm - N/A   Clear
2:15 AM 30.6 °F - 28.9 °F 94% 30.14 in 10.0 mi Calm Calm - N/A   Clear
2:35 AM 31.3 °F 27.9 °F 29.8 °F 94% 30.14 in 10.0 mi WNW 3.5 mph - N/A   Clear
2:55 AM 29.5 °F - 27.9 °F 94% 30.14 in 10.0 mi Calm Calm - N/A   Clear
3:15 AM 29.7 °F - 28.0 °F 94% 30.13 in 10.0 mi Calm Calm - N/A   Clear
3:35 AM 29.8 °F 24.9 °F 28.2 °F 94% 30.13 in 10.0 mi West 4.6 mph - N/A   Clear
3:55 AM 28.8 °F - 27.1 °F 94% 30.13 in 10.0 mi Calm Calm - N/A   Clear
4:15 AM 29.3 °F - 27.5 °F 93% 30.12 in 10.0 mi Calm Calm - N/A   Clear
4:35 AM 29.1 °F - 27.3 °F 93% 30.13 in 10.0 mi Calm Calm - N/A   Clear
4:55 AM 29.1 °F - 27.3 °F 93% 30.12 in 10.0 mi Calm Calm - N/A   Clear
5:15 AM 28.6 °F - 27.0 °F 94% 30.13 in 10.0 mi Calm Calm - N/A   Clear
5:35 AM 28.4 °F 22.2 °F 26.8 °F 94% 30.13 in 10.0 mi West 5.8 mph - N/A   Clear
5:55 AM 29.5 °F - 27.9 °F 94% 30.13 in 10.0 mi Calm Calm - N/A   Clear
6:15 AM 29.8 °F - 28.2 °F 94% 30.13 in 10.0 mi Calm Calm - N/A   Clear
6:35 AM 29.3 °F - 27.9 °F 94% 30.13 in 7.0 mi Calm Calm - N/A   Clear
6:55 AM 28.6 °F - 27.0 °F 94% 30.13 in 7.0 mi Calm Calm - N/A   Clear
7:15 AM 28.2 °F - 26.6 °F 94% 30.13 in 10.0 mi Calm Calm - N/A   Clear
7:35 AM 29.3 °F - 27.5 °F 93% 30.12 in 10.0 mi Calm Calm - N/A   Clear
7:55 AM 31.3 °F - 29.7 °F 94% 30.12 in 10.0 mi Calm Calm - N/A   Clear
8:15 AM 34.0 °F - 32.0 °F 92% 30.12 in 10.0 mi Calm Calm - N/A   Clear
8:35 AM 37.2 °F - 33.6 °F 87% 30.12 in 10.0 mi Calm Calm - N/A   Clear
8:55 AM 40.8 °F - 34.3 °F 78% 30.12 in 10.0 mi Calm Calm - N/A   Clear
9:15 AM 44.2 °F - 35.1 °F 70% 30.11 in 10.0 mi Calm Calm - N/A   Clear
9:35 AM 48.0 °F - 36.3 °F 64% 30.10 in 10.0 mi Calm Calm - N/A   Clear
9:55 AM 51.4 °F - 36.0 °F 56% 30.09 in 10.0 mi SW 4.6 mph - N/A   Clear
10:15 AM 54.5 °F - 34.7 °F 47% 30.08 in 10.0 mi South 6.9 mph - N/A   Clear
10:35 AM 56.7 °F - 32.7 °F 40% 30.08 in 10.0 mi SW 6.9 mph - N/A   Clear
10:55 AM 58.1 °F - 31.8 °F 37% 30.07 in 10.0 mi SW 6.9 mph - N/A   Clear
11:15 AM 59.2 °F - 32.4 °F 36% 30.05 in 10.0 mi SSW 6.9 mph - N/A   Clear
11:35 AM 60.8 °F - 32.2 °F 34% 30.03 in 10.0 mi SW 6.9 mph - N/A   Clear
12:15 PM 63.3 °F - 32.0 °F 31% 30.01 in 10.0 mi SW 5.8 mph - N/A   Clear
12:35 PM 64.6 °F - 31.8 °F 29% 30.00 in 10.0 mi SW 8.1 mph - N/A   Clear
12:55 PM 65.1 °F - 31.8 °F 29% 29.98 in 10.0 mi WSW 9.2 mph - N/A   Clear
1:15 PM 65.5 °F - 32.0 °F 29% 29.97 in 10.0 mi SW 8.1 mph - N/A   Clear
1:35 PM 66.2 °F - 32.0 °F 28% 29.95 in 10.0 mi WSW 9.2 mph - N/A   Clear
1:55 PM 66.4 °F - 32.0 °F 28% 29.94 in 10.0 mi SW 9.2 mph - N/A   Clear
2:15 PM 67.1 °F - 32.2 °F 27% 29.93 in 10.0 mi SW 5.8 mph - N/A   Clear
2:35 PM 66.6 °F - 32.2 °F 28% 29.93 in 10.0 mi SW 10.4 mph - N/A   Clear
2:55 PM 66.6 °F - 32.5 °F 28% 29.92 in 10.0 mi WSW 8.1 mph - N/A   Clear
3:15 PM 65.5 °F - 32.4 °F 29% 29.91 in 10.0 mi SW 6.9 mph - N/A   Clear
3:35 PM 65.8 °F - 33.1 °F 30% 29.90 in 10.0 mi SSW 5.8 mph - N/A   Clear
3:55 PM 65.7 °F - 33.1 °F 30% 29.90 in 10.0 mi SSW 5.8 mph - N/A   Clear
4:15 PM 64.2 °F - 33.1 °F 31% 29.89 in 10.0 mi SW 4.6 mph - N/A   Clear
4:35 PM 63.7 °F - 33.1 °F 32% 29.89 in 10.0 mi SSW 4.6 mph - N/A   Clear
4:55 PM 61.7 °F - 33.4 °F 35% 29.89 in 10.0 mi SSW 4.6 mph - N/A   Clear
5:15 PM 59.4 °F - 33.6 °F 38% 29.88 in 10.0 mi SSW 4.6 mph - N/A   Clear
5:35 PM 57.2 °F - 34.5 °F 43% 29.88 in 10.0 mi South 4.6 mph - N/A   Clear
5:55 PM 53.2 °F - 37.0 °F 54% 29.88 in 10.0 mi SSW 4.6 mph - N/A   Clear
6:15 PM 52.7 °F - 36.5 °F 54% 29.88 in 10.0 mi SSW 5.8 mph - N/A   Clear
6:35 PM 54.3 °F - 35.6 °F 49% 29.88 in 10.0 mi SSW 6.9 mph - N/A   Clear
6:55 PM 55.9 °F - 35.6 °F 46% 29.88 in 10.0 mi SSW 5.8 mph - N/A   Clear
7:15 PM 56.3 °F - 36.0 °F 46% 29.88 in 10.0 mi SW 5.8 mph - N/A   Clear
7:35 PM 55.9 °F - 36.5 °F 48% 29.88 in 10.0 mi SW 5.8 mph - N/A   Clear
7:55 PM 56.1 °F - 36.9 °F 48% 29.88 in 10.0 mi SW 5.8 mph - N/A   Clear
8:15 PM 55.0 °F - 37.0 °F 51% 29.88 in 10.0 mi SSW 5.8 mph - N/A   Clear
8:35 PM 54.7 °F - 37.2 °F 52% 29.88 in 10.0 mi SSW 3.5 mph - N/A   Clear
8:55 PM 54.0 °F - 37.6 °F 54% 29.88 in 10.0 mi SW 3.5 mph - N/A   Mostly Cloudy
9:15 PM 54.3 °F - 37.8 °F 54% 29.87 in 10.0 mi SSW 3.5 mph - N/A   Overcast
9:35 PM 54.0 °F - 38.3 °F 55% 29.87 in 10.0 mi Calm Calm - N/A   Overcast
9:55 PM 53.6 °F - 38.5 °F 57% 29.86 in 10.0 mi SW 3.5 mph - N/A   Mostly Cloudy
10:15 PM 53.4 °F - 38.5 °F 57% 29.85 in 10.0 mi SW 3.5 mph - N/A   Scattered Clouds
10:35 PM 53.1 °F - 38.8 °F 59% 29.85 in 10.0 mi West 4.6 mph - N/A   Overcast
10:55 PM 52.9 °F - 38.8 °F 59% 29.85 in 10.0 mi West 5.8 mph - N/A   Mostly Cloudy
11:15 PM 52.2 °F - 38.8 °F 60% 29.85 in 10.0 mi West 5.8 mph - N/A   Scattered Clouds
11:35 PM 51.1 °F - 38.8 °F 63% 29.85 in 10.0 mi West 5.8 mph - N/A   Clear
11:55 PM 50.7 °F - 38.7 °F 63% 29.85 in 10.0 mi WNW 4.6 mph - N/A   Clear